Regional Weather Roundup
Issued by NWS

Home | Current Version | Previous Version | Text Only | Print | Product List | Glossary On
Versions: 1 2 3 4 5 6 7 8 9 10 11 12 13 14 15 16 17 18 19 20 21 22 23 24 25 26 27 28 29 30 31 32 33 34 35 36 37 38 39 40 41 42 43 44 45 46 47 48 49 50
000
ASUS43 KMKX 250210
RWRWI

WISCONSIN REGIONAL WEATHER ROUNDUP
NATIONAL WEATHER SERVICE MILWAUKEE/SULLIVAN WI
900 PM CDT THU JUL 24 2014

NOTE: "FAIR" INDICATES FEW OR NO CLOUDS BELOW 12,000 FEET WITH NO
SIGNIFICANT WEATHER AND/OR OBSTRUCTIONS TO VISIBILITY.

WIZ001-002-006>008-014>016-023>028-250300-
NORTHWEST WISCONSIN

CITY           SKY/WX    TMP DP  RH WIND       PRES   REMARKS
SUPERIOR ARPT  MOCLDY    63  56  78 E3        29.96F
ASHLAND        MOCLDY    64  59  83 NW3       29.99R
HAYWARD        MOCLDY    69  60  73 CALM      29.99R
SIREN          PTCLDY    71  59  66 E3        29.96R
RICE LAKE      CLEAR     70  57  65 SE3       29.98R
LADYSMITH      MOCLDY    70  58  67 CALM      30.00R
EAU CLAIRE     CLEAR     72  58  61 SE7       29.95S
MENOMONIE      CLEAR     70  60  71 SE5       29.96R
NEW RICHMOND   CLEAR     69  59  70 SE3       29.95S
OSCEOLA        PTCLDY    71  60  69 SE5       29.96S
$$

WIZ003>005-009-010-017-018-250300-
NORTH CENTRAL WISCONSIN

CITY           SKY/WX    TMP DP  RH WIND       PRES   REMARKS
WOODRUFF       MOCLDY    62  49  61 CALM      30.00S
RHINELANDER    MOCLDY    63  56  78 CALM      30.01S
EAGLE RIVER    CLOUDY    65  52  63 CALM      30.00S
LAND O LAKES   MOCLDY    60  55  85 CALM      30.01S
PHILLIPS       CLEAR     67  56  69 S5        29.99S
TOMAHAWK       MOCLDY    61  56  84 CALM      30.01S
MEDFORD        MOCLDY    64  57  79 CALM      30.00S
MERRILL        MOCLDY    66  56  70 CALM      30.00S
$$

WIZ029-030-035-036-043>047-250300-
CENTRAL WISCONSIN

CITY           SKY/WX    TMP DP  RH WIND       PRES   REMARKS
WAUSAU         MOCLDY    70  53  54 SE6       29.97F
MOSINEE        MOCLDY    66  57  72 VRB5      30.00F
MARSHFIELD     MOCLDY    69  59  70 CALM      29.99S
STEVENS POINT  MOCLDY    66  55  68 E3        29.99F
WAUPACA        MOCLDY    70  56  61 CALM      29.99F
WAUTOMA        MOCLDY    69  56  63 SE5       30.00F
WISC RAPIDS    MOCLDY    70  54  56 S6        29.99F
CAMP DOUGLAS   PTCLDY    68  61  77 S3        29.99S
$$

WIZ011>013-019>022-031-037>040-048>050-250300-
NORTHEAST WISCONSIN

CITY           SKY/WX    TMP DP  RH WIND       PRES   REMARKS
ANTIGO         MOCLDY    59  56  89 S5        30.01F
STURGEON BAY   PTCLDY    61  43  51 S10       30.03S
GREEN BAY      MOCLDY    66  49  54 S13       30.02S
MANITOWOC      PTCLDY    62  47  57 S7        30.05S
APPLETON       MOCLDY    68  54  60 SE10      30.01F
CLINTONVILLE   MOCLDY    64  55  72 SE6       29.99F
OSHKOSH        MOCLDY    66  51  58 S9        30.00F
$$

WIZ032>034-041-042-053>061-250300-
SOUTHWEST WISCONSIN

CITY           SKY/WX    TMP DP  RH WIND       PRES   REMARKS
LA CROSSE      MOCLDY    74  59  59 SE7       29.94R
SPARTA         CLOUDY    69  56  64 SE5       29.99R
VIROQUA        FAIR      68  59  72 S3        30.00R
BOSCOBEL       CLOUDY    73  58  59 S5        29.97F
PRAIRIE DU CHI CLOUDY    72  57  60 SE7       29.95F
PLATTEVILLE    FAIR      68  58  70 S8        30.01F
$$

WIZ056-057-062-063-064-067-068-250300-
SOUTH CENTRAL WISCONSIN

CITY           SKY/WX    TMP DP  RH WIND       PRES   REMARKS
BARABOO/DELLS  MOCLDY    65  56  72 CALM      30.00S
LONE ROCK      CLOUDY    70  61  73 CALM      30.00S
WATERTOWN      MOCLDY    66  56  69 SE9       30.02F
MADISON        CLOUDY    72  57  59 S6        30.01F
MIDDLETON      FAIR      71  54  54 S5        30.02S
MONROE         CLOUDY    68  57  68 S7        30.02F
JANESVILLE     NOT AVBL
$$

WIZ051-052-058>065-066-070>072-250300-
SOUTHEAST WISCONSIN

CITY           SKY/WX    TMP DP  RH WIND       PRES   REMARKS
MILWAUKEE      MOCLDY    63  45  51 S7        30.06F
WAUKESHA       MOCLDY    72  46  40 SE7       30.06F
MILWAUKEE/TIMM CLEAR     64  37  36 SE6       30.06F
RACINE         MOCLDY    63  49  60 S8        30.08F
BURLINGTON     MOCLDY    61  46  57 SE5       30.05F
KENOSHA        MOCLDY    62  46  55 SE5       30.07F
FOND DU LAC    MOCLDY    64  48  56 S12       30.02F
SHEBOYGAN      PTCLDY    59  47  64 S7        30.05F
WEST BEND      MOCLDY    61  41  48 CALM      30.06S
JUNEAU         MOCLDY    66  46  49 SE9       30.03F
$$

LSZ147-162-250300-
LAKE SUPERIOR

STATION/POSITION TIME  TEMP    WIND        PRES    WAVE
                       AIR SEA DIR/SP/G            HT/PER
                 (UTC) (F)     (DEG/KT/KT) (MB)    (FT/S)
$$

LMZ867-665-643>646-250300-
LAKE MICHIGAN

STATION/POSITION TIME  TEMP    WIND        PRES    WAVE
                       AIR SEA DIR/SP/G            HT/PER
                 (UTC) (F)     (DEG/KT/KT) (MB)    (FT/S)
$$

TC  - TEMPERATURE IN CELSIUS
VSB - VISIBILITY IN STATUTE MILES
WCI - WIND CHILL INDEX
HX  - HEAT INDEX




USA.gov is the U.S. government's official web portal to all federal, state and local government web resources and services.